Theta_e
357 357 358 358 358 357 356 356 355 354 353 352 353 354 355 357 357 357 357 359 360 359 359 359 359 358 357 357 357 357 357 357 357 356 357 357 358 358 359 360 360 359
356 357 357 358 359 358 357 357 356 355 355 354 352 353 356 358 358 358 358 358 359 358 358 359 359 358 357 357 358 358 358 359 358 356 357 358 357 357 358 359 359 359
356 356 357 357 359 359 357 356 357 357 356 356 354 354 356 358 359 359 358 358 358 357 358 358 359 358 358 358 358 358 358 359 359 357 358 359 357 357 357 358 358 358
357 356 356 357 358 359 357 357 358 358 356 356 356 355 355 356 358 359 360 359 358 358 358 358 358 358 358 359 358 358 357 359 360 359 359 360 359 358 357 358 357 357
358 357 357 357 358 359 358 358 358 358 357 356 356 356 356 357 358 358 360 360 358 358 358 358 359 358 358 359 359 358 357 357 359 360 360 360 359 359 358 357 358 358
359 359 358 358 359 359 359 358 358 358 357 356 356 357 358 358 358 357 358 359 359 358 357 357 358 358 357 359 359 359 358 356 357 359 360 360 359 359 358 358 359 359
361 360 359 359 360 359 359 359 358 358 358 357 356 357 358 358 359 358 357 358 358 358 357 356 358 358 357 358 360 361 359 358 358 359 360 360 359 359 359 359 360 361
361 361 360 361 361 360 359 359 359 359 359 358 357 357 358 358 359 358 357 358 358 358 358 357 359 360 359 357 359 361 361 359 359 360 361 360 360 360 361 361 362 362
362 362 362 361 360 360 359 359 359 359 359 358 357 357 358 358 358 358 358 359 358 359 360 359 359 361 360 359 359 361 362 359 358 360 361 361 360 361 361 361 362 362
362 362 362 361 360 359 359 359 358 359 359 359 358 357 358 358 358 358 358 360 360 360 360 361 361 361 360 360 359 360 361 360 359 360 361 362 361 360 361 361 361 362
362 362 361 361 361 359 359 359 358 358 359 359 358 357 357 358 359 358 359 360 361 360 360 361 361 361 360 359 358 360 360 360 360 361 362 362 362 361 360 361 361 361
362 362 361 361 360 359 359 358 358 358 359 359 359 358 357 357 359 359 359 360 360 361 360 361 361 361 361 359 357 358 360 360 359 360 361 362 362 361 361 361 362 361
362 362 361 361 361 360 358 358 358 358 358 359 359 359 357 356 358 359 360 360 361 361 360 361 361 361 361 361 359 357 359 360 359 359 360 362 362 361 360 360 361 361
362 362 361 361 361 361 360 359 359 358 358 359 359 359 358 356 356 359 360 360 360 361 360 360 361 361 361 362 361 359 359 360 360 360 358 360 361 361 360 359 359 359
362 362 362 362 362 362 361 360 359 359 359 359 360 360 359 357 357 357 360 361 361 362 361 360 360 361 361 362 362 362 360 358 360 360 359 358 360 360 359 359 358 356
363 363 362 362 362 362 362 361 360 360 360 360 360 360 359 358 358 358 359 361 361 362 362 361 361 360 360 359 358 360 361 359 359 360 361 360 359 360 359 359 358 357
363 363 363 363 363 363 363 362 361 361 361 361 361 361 360 360 360 360 359 359 361 362 362 362 361 360 359 356 354 354 358 360 360 360 362 362 361 361 360 359 358 358
364 364 364 364 364 364 364 363 362 362 362 362 362 362 362 361 361 361 360 359 360 361 362 361 361 360 358 355 353 351 351 357 360 360 361 362 362 362 361 360 358 358
364 364 365 365 364 364 364 364 363 363 362 363 362 362 362 362 362 361 361 361 360 360 361 361 361 361 359 356 354 352 349 351 356 358 359 360 362 362 361 361 361 361
365 365 365 365 365 365 365 365 364 363 363 362 362 363 363 363 363 361 362 362 361 360 361 360 360 360 360 358 356 354 352 351 353 356 357 358 360 362 362 362 362 363
365 366 365 365 366 365 365 365 364 364 364 363 362 362 363 363 363 362 363 362 362 361 361 360 359 359 359 358 357 355 354 352 353 355 357 357 359 361 361 362 363 363
365 365 365 366 365 365 365 365 364 365 364 363 362 362 362 363 362 362 362 362 362 362 361 361 360 359 358 358 357 356 355 354 354 355 357 357 359 360 361 362 363 363
364 364 365 365 365 365 365 364 364 365 364 364 362 362 361 362 362 362 362 362 361 362 362 361 361 359 358 357 356 356 355 354 354 356 357 358 359 360 360 361 362 363
363 363 365 365 365 365 365 364 364 364 364 364 363 361 360 361 362 362 362 362 361 361 362 362 361 361 359 357 356 356 355 354 355 357 358 359 359 360 360 361 362 362
363 364 364 365 365 365 364 364 364 364 364 363 363 361 360 360 361 361 362 362 361 361 361 361 361 361 360 358 357 356 354 355 356 358 358 359 360 360 361 361 362 361
363 363 364 364 365 365 364 364 363 363 363 363 363 362 361 361 360 360 361 362 361 361 361 361 360 361 361 359 358 357 355 354 356 358 359 360 360 361 361 362 362 362
Wind_Speed
23 22 22 21 21 21 20 21 20 20 21 20 19 18 17 17 16 16 15 14 14 15 15 15 14 14 13 12 12 11 10 9 9 9 10 11 10 10 9 9 8 8
25 23 22 21 21 21 21 21 21 21 21 21 20 17 16 16 16 16 16 15 14 15 15 15 15 15 14 12 12 12 11 10 10 10 10 11 11 11 10 10 9 9
26 25 24 22 22 22 22 21 20 21 20 20 20 18 16 15 16 16 16 15 15 14 14 15 15 15 15 14 13 12 12 11 11 10 10 11 11 11 11 10 9 9
28 27 25 24 23 22 22 21 20 21 20 20 20 19 18 16 15 16 16 16 15 14 14 15 15 15 15 14 14 13 13 12 12 11 11 11 11 11 12 11 10 9
29 28 27 25 23 22 21 21 21 21 21 20 19 19 18 17 16 16 15 15 16 15 15 14 15 15 15 14 14 14 13 13 12 12 12 11 11 11 11 11 11 11
29 29 27 26 24 23 22 22 22 22 21 21 20 19 18 19 18 17 16 15 15 15 15 15 15 15 15 15 14 14 14 13 12 12 12 12 11 12 11 11 12 12
30 30 28 26 25 24 24 22 22 22 21 20 20 19 19 19 19 19 18 17 16 15 16 16 15 15 15 15 15 15 14 14 13 13 13 12 12 12 12 12 12 12
30 29 29 28 26 25 24 23 22 22 21 20 20 20 20 19 19 19 19 19 18 17 16 16 16 16 15 15 15 15 15 15 14 14 14 13 13 13 13 12 12 13
30 29 29 29 28 26 25 25 24 23 22 22 21 20 20 20 20 19 19 20 19 18 17 17 17 16 16 16 16 16 15 15 14 14 15 15 15 14 14 13 13 13
30 30 29 29 29 28 27 26 25 23 23 23 23 21 20 20 20 20 20 20 20 19 19 18 18 17 17 17 17 16 16 15 15 15 15 15 15 15 14 14 14 14
31 30 30 30 30 28 28 28 26 24 23 23 23 23 22 20 20 21 21 20 20 20 20 20 19 19 19 18 17 17 16 16 16 16 16 16 16 16 15 15 15 15
32 31 31 31 30 29 28 28 26 25 24 24 24 24 23 22 21 21 22 22 22 21 20 21 20 20 20 20 18 17 17 16 16 16 16 16 16 16 16 16 16 16
33 32 31 31 30 29 27 27 27 26 25 24 24 24 24 23 22 22 22 23 23 23 22 21 21 20 21 21 20 19 18 17 17 17 17 16 17 17 17 17 17 17
33 32 31 30 29 28 27 26 26 26 26 24 23 24 24 24 23 23 22 22 23 23 22 21 21 21 21 21 21 20 19 19 18 18 17 17 17 17 17 17 17 17
31 30 30 29 28 28 27 26 25 25 25 25 24 24 24 24 24 23 22 22 22 22 22 22 21 22 22 22 21 20 20 20 19 19 18 18 17 17 17 17 18 18
30 29 29 29 29 28 28 27 26 25 25 25 24 24 23 23 23 23 22 22 21 21 21 22 22 22 24 25 25 22 20 19 19 19 18 18 17 17 17 18 18 18
30 29 29 29 29 28 28 28 27 25 25 25 24 24 23 23 23 23 23 22 21 21 22 22 22 23 26 29 29 27 23 19 18 18 18 17 18 18 18 18 18 18
30 29 29 29 29 28 28 28 27 25 25 25 24 24 23 22 22 23 23 22 21 21 22 22 22 23 27 30 30 31 28 23 18 17 17 17 18 18 19 18 18 18
29 29 29 28 28 28 27 27 27 27 26 25 24 23 23 22 22 22 22 22 22 21 21 22 21 23 26 29 30 31 31 28 22 18 17 17 18 18 19 18 18 18
29 29 28 28 28 27 26 26 28 28 26 25 23 23 23 23 23 23 22 22 23 22 22 22 22 22 25 28 29 30 30 30 27 22 19 19 19 19 19 19 19 18
29 29 28 27 27 27 27 27 27 27 26 25 23 23 23 23 23 23 23 23 23 23 23 22 23 23 24 26 28 28 28 29 28 24 21 20 20 20 20 20 19 19
30 29 28 27 27 27 27 27 27 26 26 25 23 22 22 22 22 23 23 23 24 24 24 23 23 25 26 27 27 27 26 27 28 25 22 22 21 21 21 21 21 21
30 29 28 27 28 28 28 27 26 26 25 25 24 23 22 22 22 22 23 24 24 24 24 24 24 25 28 29 30 29 27 28 27 24 22 23 22 22 22 22 22 22
30 29 28 28 28 28 27 27 26 25 25 25 25 25 24 23 22 22 22 24 25 25 25 25 24 25 27 30 30 31 30 29 26 22 22 22 22 23 23 22 23 24
28 28 28 27 27 27 26 26 26 25 25 24 24 24 24 23 23 22 22 23 23 24 26 26 24 24 26 30 31 31 32 30 25 22 22 23 22 22 22 22 23 24
27 28 28 27 26 26 25 25 25 24 24 24 23 23 23 23 23 23 22 22 22 23 24 26 25 24 25 29 30 31 32 31 27 23 22 22 22 21 21 21 22 23
Wind_Direction
207 208 209 207 207 208 207 207 207 208 211 213 215 216 215 214 214 216 218 220 221 222 223 225 230 233 234 235 236 236 236 236 233 230 227 228 232 235 236 235 235 241
207 208 209 209 210 208 207 208 208 208 210 213 216 216 213 211 211 214 217 219 223 225 224 225 229 232 232 231 232 233 234 235 234 232 229 229 232 235 237 236 234 236
207 208 208 209 211 208 206 208 208 209 211 213 214 214 211 210 210 213 215 218 223 226 226 226 228 231 232 231 230 231 232 232 233 232 230 230 232 236 238 237 236 233
205 208 209 210 212 209 207 207 208 209 211 212 213 212 212 210 209 210 213 217 221 223 224 226 228 230 231 230 229 231 231 232 232 231 230 232 232 234 238 239 238 235
203 205 207 209 210 210 206 206 208 209 211 212 212 211 209 208 208 209 211 216 221 222 222 224 226 228 229 229 229 230 231 231 231 229 229 233 234 234 237 239 239 238
200 201 203 205 207 207 206 207 210 210 211 211 210 209 208 207 208 210 211 214 218 221 220 221 224 226 227 227 228 230 230 231 231 228 227 231 236 238 237 237 237 237
197 199 200 202 203 204 206 208 209 210 211 210 209 209 208 207 208 210 212 214 217 218 219 220 221 222 224 225 226 227 228 230 229 227 228 231 236 239 239 238 236 236
196 197 197 199 201 202 205 207 208 209 209 208 209 209 208 208 209 210 211 213 215 216 217 217 218 219 221 222 224 225 225 227 227 225 225 228 233 236 237 237 237 237
194 195 196 198 200 202 204 206 207 208 207 207 209 210 208 209 210 210 210 211 213 214 214 215 215 216 218 220 221 222 223 225 225 224 223 226 230 233 234 236 237 238
193 194 196 199 201 203 204 206 207 207 206 207 209 210 209 209 209 209 209 209 211 212 211 212 213 213 216 218 219 220 221 224 224 224 224 226 229 232 235 237 238 239
193 195 197 199 202 204 204 205 207 206 205 205 208 209 209 208 207 207 207 208 210 211 211 212 212 213 215 217 219 220 221 222 223 224 225 227 230 233 234 236 238 240
193 195 197 199 201 203 204 205 205 205 204 204 205 206 207 208 206 206 206 208 210 210 211 213 214 213 215 216 218 219 220 222 223 224 225 227 230 232 233 234 237 240
193 194 196 199 201 202 203 204 204 205 204 204 204 204 206 207 206 206 206 207 209 212 212 212 213 214 215 216 217 217 217 220 222 224 225 227 229 231 232 234 237 239
193 194 195 197 198 200 202 203 204 204 204 204 203 204 206 207 207 207 206 206 209 211 212 211 212 214 215 215 216 216 216 218 221 223 225 226 228 230 232 235 237 239
191 191 192 193 194 196 198 201 202 202 203 203 202 204 206 208 209 208 206 206 208 209 209 210 212 214 215 215 214 213 215 218 220 222 225 227 228 230 232 234 236 240
187 187 189 190 192 193 195 197 199 200 201 202 203 205 207 208 209 208 208 208 207 207 207 208 211 215 217 218 217 213 212 216 220 221 223 225 227 229 232 234 236 240
184 185 186 188 190 191 192 194 196 198 200 201 203 205 206 207 207 208 210 210 209 208 208 210 213 216 220 223 223 220 215 213 217 221 221 223 225 227 231 235 237 239
182 183 185 187 188 189 190 192 194 196 198 199 202 204 205 206 207 208 211 212 212 212 212 215 217 218 222 226 228 227 223 217 216 221 222 223 226 228 231 235 237 238
181 183 185 186 187 188 188 190 192 195 197 199 201 203 203 205 208 210 211 212 214 216 217 220 222 222 224 228 230 231 229 225 221 223 225 226 227 229 231 233 235 235
182 184 186 187 187 187 188 191 194 197 199 200 202 203 204 207 209 210 211 212 215 218 220 223 226 226 227 230 233 233 233 230 226 226 229 231 230 231 232 232 233 233
183 185 187 187 187 188 191 194 197 198 200 202 204 206 206 208 210 212 212 213 216 218 221 225 228 229 229 232 234 235 234 232 229 227 230 232 232 232 233 234 233 233
185 186 187 188 188 191 195 197 199 199 201 203 205 208 209 209 211 214 214 216 217 218 220 224 228 228 228 230 234 235 233 231 228 226 228 231 232 233 234 235 235 234
187 188 188 190 191 194 197 199 199 200 200 201 204 208 210 210 212 215 216 217 218 217 218 223 226 226 226 229 231 232 230 227 224 222 225 229 232 233 234 234 235 234
189 189 190 191 193 196 198 199 199 200 201 201 204 208 211 213 213 215 217 217 218 218 218 221 225 226 226 228 230 230 229 225 219 218 222 227 230 233 233 235 236 235
187 188 190 192 194 196 198 199 199 201 202 202 205 208 211 213 213 215 217 217 218 220 219 221 224 227 226 227 228 230 228 223 216 215 220 224 227 231 232 233 235 237
185 187 190 193 194 196 198 200 200 202 203 202 205 208 210 212 214 215 218 219 220 221 221 222 224 225 227 227 227 229 229 222 215 214 219 221 224 228 230 232 234 236